sat.trackr.live / text

‹ back to catalog

TIANMU-1 10

NORAD 57402 · 2023-101D

PAYLOAD ACTIVE UNKNOWN

§ Identity

Operator
Country
PRC
Launch date
2023-07-20
Launch site
JSC
Launch vehicle
Mass (kg)
RCS (m²)

Purposes: earth_obs

External: N2YO · Heavens-Above · Gunter

§ Orbital elements

Epoch: 2026-05-25T04:30:08.635680Z

Period
94.15 min
Inclination
97.2635°
Eccentricity
0.0004079
Mean motion
15.29494411 rev/d
Perigee alt
474.5 km
Apogee alt
480.1 km
Semi-major
6,855.5 km
B*
2.1320e-4
RAAN
196.6163°
Arg perigee
194.2514°
Mean anomaly
165.8612°
Rev number
15,812

§ Raw data

TIANMU-1 101 57402U 23101D   26145.18759995  .00006023  00000+0  21320-3 0  99972 57402  97.2635 196.6163 0004079 194.2514 165.8612 15.29494411158126

JSON: /api/v1/satellites/57402 · /tle

For live sub-satellite position, see the globe view (requires WebGL).

§ Visibility from observer

Set your observer location to see the next 7 days of passes ≥ 10°. The values pass through the URL so the page stays shareable.

No JS? Fill the form by hand. The geolocation button needs JavaScript.